Location: Camp Crooked Creek
(37.9149°N, 85.6607°W)
Time: 18:17:25
(UTC-04:00)

Lacrosse 4 - Visible Passes

Search period start: 16 October 2017 00:00
Search period end: 26 October 2017 00:00
Orbit: 673 x 680 km, 68.0° (Epoch: 25 February)

Date Brightness Start Highest point End Pass type
(mag) Time Alt. Az. Time Alt. Az. Time Alt. Az.
20 Oct 4.4 21:44:21 10° NNW 21:44:36 11° NNW 21:44:36 11° NNW visible
21 Oct 3.9 20:39:40 10° N 20:40:37 13° NNE 20:40:37 13° NNE visible
22 Oct 3.7 21:13:28 10° NNW 21:15:02 20° N 21:15:02 20° N visible
23 Oct 3.5 20:08:51 10° NNE 20:11:14 16° NE 20:11:14 16° NE visible
23 Oct 4.1 21:48:13 10° NNW 21:49:32 18° NW 21:49:32 18° NW visible
24 Oct 2.6 20:42:35 10° NNW 20:45:51 34° NNE 20:45:51 34° NNE visible
24 Oct 4.9 22:24:06 10° WNW 22:24:10 10° WNW 22:24:10 10° WNW visible
25 Oct 3.4 19:38:03 10° NNE 19:40:52 15° NE 19:42:18 14° ENE visible
25 Oct 2.7 21:17:18 10° NNW 21:20:38 43° NW 21:20:38 43° NW visible
